Location: Observatory
(52.1446°N, 0.4624°W)
Time: 15:11:45
(UTC+00:00)

ISS - Pass Details

Date: 10 November 2018
Orbit: 401 x 408 km, 51.6° (Epoch: 20 November)

Event Time Altitude Azimuth Distance (km) Brightness Sun altitude
Exits shadow 06:31:01 - 267° (W) 1,670 -1.3 -6.8°
Reaches altitude 10° 06:31:42 10° 259° (W) 1,464 -1.5 -6.7°
Maximum altitude 06:33:54 17° 217° (SW) 1,116 -1.8 -6.3°
Drops below altitude 10° 06:36:07 10° 174° (S) 1,461 -0.6 -6.0°
Sets 06:38:40 0° 153° (SSE) 2,319 0.8 -5.7°
